Weather History for Providence, RI

Change the Weather History Date:

Saturday, August 17, 2013

  Actual Average Record
Temperature  
Mean Temperature 71 °F 72 °F  
Max Temperature 82 °F 82 °F 97 °F (1944)
Min Temperature 59 °F 63 °F 50 °F (1981)
Degree Days  
Heating Degree Days 0 0  
Month to date heating degree days 0 0  
Since 1 June heating degree days 24 46  
Since 1 July heating degree days 0 3  
Cooling Degree Days 6 8  
Month to date cooling degree days 90 142  
Year to date cooling degree days 720 566  
Since 1 June cooling degree days 676 540  
Growing Degree Days 20 (Base 50)    
Moisture  
Dew Point 55 °F    
Average Humidity 63    
Maximum Humidity 84    
Minimum Humidity 42    
Precipitation  
Precipitation 0.00 in 0.12 in 1.47 in (1909)
Month to date precipitation 2.04 2.00  
Year to date precipitation 28.98 29.00  
Snow  
Snow 0.00 in 0.00 in 0.00 in (2002)
Month to date snowfall 0.0 0.0  
Since 1 June snowfall 0.0 0.0  
Since 1 July snowfall 0.0 0.0  
Snow Depth 0.00 in    
Sea Level Pressure  
Sea Level Pressure 30.25 in    
Wind  
Wind Speed 3 mph (South)    
Max Wind Speed 10 mph    
Max Gust Speed 14 mph    
Visibility 10 miles    
Events      
T = Trace of Precipitation, MM = Missing Value Source: NWS Daily Summary

Daily Weather History Graph

Daily Weather History Graph

Search for Another Location

Airport:

Trip Planner

Search our weather history database for the weather conditions in past years. The results will help you decide how hot, cold, wet, or windy it might be!

Date:

Astronomy

Aug. 17, 2013 Rise Set
Actual Time 5:56 AM EDT 7:42 PM EDT
Civil Twilight 5:26 AM EDT 8:11 PM EDT
Nautical Twilight 4:50 AM EDT 8:47 PM EDT
Astronomical Twilight 4:11 AM EDT 9:26 PM EDT
Moon 4:56 PM EDT (8/17) 1:54 AM EDT (8/17)
Length of Visible Light 14h 45m
Length of Day
13h 45m
Waxing Gibbous, 84% of the Moon is Illuminated
Aug 17
Waxing Gibbous
Aug 20
Full
Aug 28
Last Quarter
Sep 5
New
Sep 12
First Quarter

Hourly Weather History & Observations

Time (EDT) Temp. Dew Point Humidity Pressure Visibility Wind Dir Wind Speed Gust Speed Precip Events Conditions
12:51 AM 63.0 °F 57.0 °F 81% 30.22 in 10.0 mi Calm Calm - N/A   Clear
1:51 AM 62.1 °F 55.9 °F 80% 30.22 in 10.0 mi West 3.5 mph - N/A   Clear
2:51 AM 63.0 °F 55.9 °F 78% 30.22 in 10.0 mi Calm Calm - N/A   Clear
3:51 AM 61.0 °F 55.0 °F 81% 30.22 in 10.0 mi West 3.5 mph - N/A   Scattered Clouds
4:51 AM 60.1 °F 54.0 °F 80% 30.22 in 10.0 mi West 3.5 mph - N/A   Partly Cloudy
5:51 AM 60.1 °F 54.0 °F 80% 30.23 in 10.0 mi Calm Calm - N/A   Scattered Clouds
6:51 AM 61.0 °F 55.0 °F 81% 30.25 in 10.0 mi Calm Calm - N/A   Scattered Clouds
7:51 AM 68.0 °F 55.0 °F 63% 30.26 in 10.0 mi North 3.5 mph - N/A   Scattered Clouds
8:51 AM 71.1 °F 55.0 °F 57% 30.26 in 10.0 mi North 5.8 mph - N/A   Mostly Cloudy
9:51 AM 75.0 °F 55.0 °F 50% 30.26 in 10.0 mi Calm Calm - N/A   Mostly Cloudy
10:51 AM 77.0 °F 55.0 °F 47% 30.27 in 10.0 mi Variable 3.5 mph - N/A   Mostly Cloudy
11:51 AM 79.0 °F 55.0 °F 44% 30.27 in 10.0 mi East 8.1 mph - N/A   Mostly Cloudy
12:51 PM 79.0 °F 54.0 °F 42% 30.26 in 10.0 mi Variable 3.5 mph - N/A   Mostly Cloudy
1:51 PM 78.1 °F 54.0 °F 43% 30.25 in 10.0 mi ESE 3.5 mph - N/A   Mostly Cloudy
2:51 PM 79.0 °F 54.0 °F 42% 30.25 in 10.0 mi South 4.6 mph - N/A   Scattered Clouds
3:51 PM 78.1 °F 55.9 °F 46% 30.23 in 10.0 mi ESE 6.9 mph - N/A   Mostly Cloudy
4:51 PM 78.1 °F 55.0 °F 45% 30.24 in 10.0 mi ENE 8.1 mph - N/A   Mostly Cloudy
5:51 PM 77.0 °F 57.0 °F 50% 30.25 in 10.0 mi South 5.8 mph - N/A   Mostly Cloudy
6:51 PM 73.9 °F 53.1 °F 48% 30.25 in 10.0 mi South 5.8 mph - N/A   Mostly Cloudy
7:51 PM 70.0 °F 57.0 °F 63% 30.26 in 10.0 mi Calm Calm - N/A   Mostly Cloudy
8:51 PM 69.1 °F 57.9 °F 68% 30.27 in 10.0 mi Calm Calm - N/A   Overcast
9:51 PM 66.0 °F 59.0 °F 78% 30.28 in 10.0 mi South 3.5 mph - N/A   Overcast
10:51 PM 64.9 °F 55.0 °F 70% 30.29 in 10.0 mi SW 3.5 mph - N/A   Mostly Cloudy
11:51 PM 64.0 °F 55.9 °F 75% 30.29 in 10.0 mi Calm Calm - N/A   Mostly Cloudy